N5VKM Weather Reports


time (UTC)temp
C
wind
direction
speed
KPH
gust
KPH
rain 1hr
cm
rain 24hr
cm
rain mn
cm
humidity
%
barometer
mb
20260506103550 12 333 0.0 0.0 0.00 0.00 0.00 81 1011.8
20260506103037 12 340 0.0 0.0 0.00 0.00 0.00 80 1011.7
20260506102551 12 340 0.0 0.0 0.00 0.00 0.00 80 1011.5
20260506102037 12 333 0.0 0.0 0.00 0.00 0.00 80 1011.4
20260506101551 12 332 0.0 0.0 0.00 0.00 0.00 79 1011.3
20260506101038 12 340 0.0 0.0 0.00 0.00 0.00 79 1011.2
20260506100529 12 333 0.0 0.0 0.00 0.00 0.00 79 1011.2
20260506100041 12 338 0.0 0.0 0.00 0.00 0.00 79 1011.1
20260506095548 12 360 0.0 0.0 0.00 0.00 0.00 79 1011.1
20260506095034 12 333 0.0 0.0 0.00 0.00 0.00 79 1011.2
20260506094542 12 334 0.0 0.0 0.00 0.00 0.00 79 1011.0
20260506094036 12 360 0.0 0.0 0.00 0.00 0.00 79 1011.0
20260506093549 12 336 0.0 0.0 0.00 0.00 0.00 79 1011.0
20260506093041 12 333 0.0 0.0 0.00 0.00 0.00 79 1011.0
20260506092532 12 333 0.0 0.0 0.00 0.00 0.00 78 1010.9
20260506092040 12 333 0.0 0.0 0.00 0.00 0.00 79 1010.9
20260506091546 12 333 0.0 0.0 0.00 0.00 0.00 79 1010.8
20260506091037 12 360 0.0 0.0 0.00 0.00 0.00 78 1010.5
20260506090548 13 336 0.0 0.0 0.00 0.00 0.00 78 1010.6
20260506090041 13 332 0.0 0.0 0.00 0.00 0.00 78 1010.4
20260506085531 13 360 0.0 0.0 0.00 0.00 0.00 78 1010.5
20260506085039 13 332 0.0 0.0 0.00 0.00 0.00 78 1010.4
20260506084548 13 334 0.0 0.0 0.00 0.00 0.00 78 1010.5
20260506084039 13 333 0.0 0.0 0.00 0.00 0.00 78 1010.5
20260506083546 13 360 0.0 0.0 0.00 0.00 0.00 78 1010.3
20260506083037 13 340 0.0 0.0 0.00 0.00 0.00 77 1010.2
20260506082543 13 340 0.0 0.0 0.00 0.00 0.00 77 1010.4
20260506082039 13 333 0.0 0.0 0.00 0.00 0.00 77 1010.5
20260506081545 13 333 0.0 0.0 0.00 0.00 0.00 77 1010.4
20260506081036 13 332 0.0 0.0 0.00 0.00 0.00 77 1010.1
20260506080530 13 333 0.0 0.0 0.00 0.00 0.00 77 1010.0
20260506073046 13 335 0.0 0.0 0.00 0.00 0.00 78 1009.9
20260506072534 13 332 0.0 0.0 0.00 0.00 0.00 78 1009.9
20260506072027 13 333 0.0 0.0 0.00 0.00 0.00 78 1009.8
20260506071601 13 339 0.0 0.0 0.00 0.00 0.00 78 1010.0
20260506071028 13 333 0.0 0.0 0.00 0.00 0.00 78 1010.0
20260506070539 13 340 0.0 0.0 0.00 0.00 0.00 78 1010.0
20260506062033 13 332 0.0 0.0 0.00 0.00 0.00 79 1010.3
20260506061546 14 332 0.0 0.0 0.00 0.00 0.00 79 1010.2
20260506061037 14 332 0.0 0.0 0.00 0.00 0.00 79 1010.1
20260506060548 14 334 0.0 0.0 0.00 0.00 0.00 79 1010.1
20260506051035 15 333 0.0 0.0 0.00 0.00 0.00 80 1010.1
20260506050542 15 340 0.0 0.0 0.00 0.00 0.00 80 1010.1
20260506045030 15 333 0.0 0.0 0.00 0.00 0.00 80 1010.0
20260506044603 15 334 0.0 0.0 0.00 0.00 0.00 80 1010.0
20260506044035 15 340 0.0 0.0 0.00 0.00 0.00 81 1009.9
20260506043544 15 360 0.0 0.0 0.00 0.00 0.00 80 1009.7
20260506043031 16 339 0.0 0.0 0.00 0.00 0.00 80 1009.9
20260506042604 16 332 0.0 0.0 0.00 0.00 0.00 80 1009.7
20260506042035 16 332 0.0 0.0 0.00 0.00 0.00 80 1009.7
20260506041545 16 332 0.0 0.0 0.00 0.00 0.00 81 1009.6
20260506041053 16 332 0.0 0.0 0.00 0.00 0.00 80 1009.7
20260506040604 16 333 0.0 0.0 0.00 0.00 0.00 80 1009.5
20260506040033 16 339 0.0 0.0 0.00 0.00 0.00 81 1009.5
20260506035543 16 339 0.0 0.0 0.00 0.00 0.00 81 1009.3
20260506035033 17 339 0.0 0.0 0.00 0.00 0.00 81 1009.3
20260506034527 17 338 0.0 0.0 0.00 0.00 0.00 80 1009.5
20260506034057 17 334 0.0 0.0 0.00 0.00 0.00 80 1009.6
20260506033531 17 333 0.0 0.0 0.00 0.00 0.00 80 1009.3
20260506033040 17 332 0.0 0.0 0.00 0.00 0.00 80 1009.4
20260506032547 17 339 0.0 0.0 0.00 0.00 0.00 80 1009.1
20260506032039 17 332 0.0 0.0 0.00 0.00 0.00 80 1009.3
20260506031547 17 331 0.0 0.0 0.00 0.00 0.00 80 1009.0
20260506031104 17 333 0.0 0.0 0.00 0.00 0.00 79 1008.8
20260506030533 17 339 0.0 0.0 0.00 0.00 0.00 79 1008.9
20260506030042 17 333 0.0 0.0 0.00 0.00 0.00 79 1008.7
20260506025533 18 332 0.0 0.0 0.00 0.00 0.00 79 1008.7
20260506025028 18 333 0.0 0.0 0.00 0.00 0.00 79 1008.5
20260506024539 18 339 0.0 0.0 0.00 0.00 0.00 79 1008.3
20260506024047 18 336 0.0 0.0 0.00 0.00 0.00 78 1008.2
20260506023555 19 339 0.0 0.0 0.00 0.00 0.00 79 1007.8
20260506023044 19 332 0.0 0.0 0.00 0.00 0.00 78 1007.7
20260506022605 19 338 0.0 0.0 0.00 0.00 0.00 78 1007.6
20260506022032 20 338 0.0 0.0 0.00 0.00 0.00 78 1007.6
20260506021546 20 334 0.0 0.0 0.00 0.00 0.00 78 1007.4
20260506021038 20 332 0.0 0.0 0.00 0.00 0.00 78 1007.3
20260506020545 20 333 0.0 0.0 0.00 0.00 0.00 78 1007.4
20260506020036 20 338 0.0 0.0 0.00 0.00 0.00 77 1007.3
20260506015547 20 333 0.0 0.0 0.00 0.00 0.00 77 1007.0
20260506015039 20 332 0.0 0.0 0.00 0.00 0.00 77 1006.9
20260506014527 20 333 0.0 0.0 0.00 0.00 0.00 77 1006.8
20260506014039 20 332 0.0 0.0 0.00 0.00 0.00 76 1007.0
20260506013537 20 339 0.0 0.0 0.00 0.00 0.00 76 1007.0
20260506013045 21 334 0.0 0.0 0.00 0.00 0.00 76 1006.6
20260506012558 21 331 0.0 0.0 0.00 0.00 0.00 75 1006.6
20260506012043 21 331 0.0 0.0 0.00 0.00 0.00 76 1006.3
20260506011531 21 339 0.0 0.0 0.00 0.00 0.00 76 1006.5
20260506011043 22 338 0.0 0.0 0.00 0.00 0.00 75 1006.9
20260506010551 22 333 0.0 0.0 0.00 0.00 0.00 75 1005.7
20260506010039 22 338 0.0 0.0 0.00 0.00 0.00 75 1005.7
20260506005549 22 338 0.0 0.0 0.00 0.00 0.00 75 1006.1
20260506005059 23 331 0.0 0.0 0.00 0.00 0.00 74 1005.8
20260506004544 23 332 0.0 0.0 0.00 0.00 0.00 74 1005.6
20260506004041 23 331 0.0 0.0 0.00 0.00 0.00 73 1005.8
20260506003534 23 331 0.0 0.0 0.00 0.00 0.00 72 1005.8
20260506003042 23 331 0.0 0.0 0.00 0.00 0.00 72 1005.8
20260506002530 23 338 0.0 0.0 0.00 0.00 0.00 72 1005.7
20260506002041 23 338 0.0 0.0 0.00 0.00 0.00 71 1005.9
20260506001531 23 331 0.0 0.0 0.00 0.00 0.00 70 1005.6
20260506001040 23 337 0.0 0.0 0.00 0.00 0.00 70 1005.6
20260506000546 23 336 0.0 0.0 0.00 0.00 0.00 70 1005.7
20260506000035 24 337 0.0 0.0 0.00 0.00 0.00 71 1005.6
20260505235549 24 338 0.0 0.0 0.00 0.00 0.00 70 1005.6
20260505235042 24 337 0.0 0.0 0.00 0.00 0.00 70 1005.3
20260505234548 24 338 0.0 0.0 0.00 0.00 0.00 69 1005.1
20260505234041 25 338 0.0 0.0 0.00 0.00 0.00 69 1005.0
20260505233528 25 337 0.0 0.0 0.00 0.00 0.00 67 1005.0
20260505233039 26 338 0.0 0.0 0.00 0.00 0.00 66 1005.0
20260505232609 26 337 0.0 0.0 0.00 0.00 0.00 64 1005.2
20260505232037 26 337 0.0 0.0 0.00 0.00 0.00 64 1005.0
20260505231531 26 337 0.0 0.0 0.00 0.00 0.00 63 1004.8
20260505231058 27 337 0.0 0.0 0.00 0.00 0.00 62 1004.8
20260505230528 27 337 0.0 0.0 0.00 0.00 0.00 60 1004.5
20260505230038 28 336 0.0 0.0 0.00 0.00 0.00 58 1004.3
20260505225532 28 337 0.0 0.0 0.00 0.00 0.00 57 1004.2
20260505225046 28 336 0.0 0.0 0.00 0.00 0.00 55 1004.3
20260505224543 28 336 0.0 0.0 0.00 0.00 0.00 55 1004.3
20260505224049 28 337 0.0 0.0 0.00 0.00 0.00 54 1004.2
20260505223536 29 337 0.0 0.0 0.00 0.00 0.00 54 1004.1
20260505223027 29 336 0.0 0.0 0.00 0.00 0.00 53 1004.1
20260505222539 30 336 0.0 0.0 0.00 0.00 0.00 52 1004.0
20260505222046 30 336 0.0 0.0 0.00 0.00 0.00 52 1003.8
20260505221537 30 337 0.0 0.0 0.00 0.00 0.00 52 1003.7
20260505221028 30 336 0.0 0.0 0.00 0.00 0.00 53 1003.7
20260505220558 30 336 0.0 0.0 0.00 0.00 0.00 54 1003.8
20260505220035 30 334 0.0 0.0 0.00 0.00 0.00 58 1003.7
20260505215543 31 334 0.0 0.0 0.00 0.00 0.00 57 1003.7
20260505215037 31 334 0.0 0.0 0.00 0.00 0.00 57 1003.7
20260505214536 31 333 0.0 0.0 0.00 0.00 0.00 56 1003.9
20260505214045 31 335 0.0 0.0 0.00 0.00 0.00 57 1003.9
20260505213533 31 333 0.0 0.0 0.00 0.00 0.00 57 1003.9
20260505213040 31 334 0.0 0.0 0.00 0.00 0.00 58 1004.0
20260505212531 31 334 0.0 0.0 0.00 0.00 0.00 59 1003.9
20260505212043 31 333 0.0 0.0 0.00 0.00 0.00 58 1004.0
20260505211531 31 335 0.0 0.0 0.00 0.00 0.00 58 1004.0
20260505211039 31 334 0.0 0.0 0.00 0.00 0.00 57 1004.2
20260505210550 31 333 0.0 0.0 0.00 0.00 0.00 58 1004.2
20260505210036 31 335 0.0 0.0 0.00 0.00 0.00 58 1004.3
20260505205548 31 334 0.0 0.0 0.00 0.00 0.00 59 1004.1
20260505205038 31 334 0.0 0.0 0.00 0.00 0.00 60 1004.2
20260505204532 30 334 0.0 0.0 0.00 0.00 0.00 60 1004.4
20260505204040 30 334 0.0 0.0 0.00 0.00 0.00 61 1004.4
20260505203533 30 334 0.0 0.0 0.00 0.00 0.00 60 1004.3
20260505203042 30 334 0.0 0.0 0.00 0.00 0.00 60 1004.5
20260505202528 30 333 0.0 0.0 0.00 0.00 0.00 60 1004.6
20260505202040 30 335 0.0 0.0 0.00 0.00 0.00 60 1004.6
20260505201555 30 335 0.0 0.0 0.00 0.00 0.00 61 1004.6
20260505201042 30 335 0.0 0.0 0.00 0.00 0.00 60 1004.6
20260505200537 30 335 0.0 0.0 0.00 0.00 0.00 61 1004.5
20260505200026 30 329 0.0 0.0 0.00 0.00 0.00 61 1004.6
20260505195540 30 334 0.0 0.0 0.00 0.00 0.00 60 1004.6
20260505195110 30 336 0.0 0.0 0.00 0.00 0.00 60 1004.7
20260505194600 30 333 0.0 0.0 0.00 0.00 0.00 59 1004.7
20260505194048 30 334 0.0 0.0 0.00 0.00 0.00 61 1004.7
20260505193545 30 334 0.0 0.0 0.00 0.00 0.00 60 1004.6
20260505193033 30 335 0.0 0.0 0.00 0.00 0.00 63 1004.5
20260505192542 30 335 0.0 0.0 0.00 0.00 0.00 61 1004.5
20260505192032 29 333 0.0 0.0 0.00 0.00 0.00 63 1004.6
20260505191610 29 335 0.0 0.0 0.00 0.00 0.00 64 1004.5
20260505191101 29 333 0.0 0.0 0.00 0.00 0.00 65 1004.4
20260505190548 29 334 0.0 0.0 0.00 0.00 0.00 66 1004.4
20260505190042 29 333 0.0 0.0 0.00 0.00 0.00 67 1004.4
20260505185531 29 336 0.0 0.0 0.00 0.00 0.00 67 1004.4
20260505185037 29 333 0.0 0.0 0.00 0.00 0.00 67 1004.6
20260505184545 28 333 0.0 0.0 0.00 0.00 0.00 68 1004.7
20260505184042 28 335 0.0 0.0 0.00 0.00 0.00 69 1004.6
20260505183531 28 335 0.0 0.0 0.00 0.00 0.00 69 1004.7
20260505183037 28 330 0.0 0.0 0.00 0.00 0.00 70 1004.6
20260505182535 28 334 0.0 0.0 0.00 0.00 0.00 70 1004.7
20260505182043 27 333 0.0 0.0 0.00 0.00 0.00 70 1004.8
20260505181536 27 335 0.0 0.0 0.00 0.00 0.00 70 1004.9
20260505181044 28 335 0.0 0.0 0.00 0.00 0.00 69 1004.8
20260505180532 28 334 0.0 0.0 0.00 0.00 0.00 69 1004.8
20260505180039 28 336 0.0 0.0 0.00 0.00 0.00 70 1004.7
20260505175530 27 333 0.0 0.0 0.00 0.00 0.00 70 1004.7
20260505175043 27 335 0.0 0.0 0.00 0.00 0.00 72 1004.8
20260505174531 27 335 0.0 0.0 0.00 0.00 0.00 71 1004.7
20260505174038 27 333 0.0 0.0 0.00 0.00 0.00 71 1004.8
20260505173545 27 335 0.0 0.0 0.00 0.00 0.00 72 1004.8
20260505173039 27 335 0.0 0.0 0.00 0.00 0.00 73 1004.7
20260505172529 26 334 0.0 0.0 0.00 0.00 0.00 74 1004.7
20260505172049 26 334 0.0 0.0 0.00 0.00 0.00 74 1004.7
20260505171544 26 336 0.0 0.0 0.00 0.00 0.00 74 1004.9
20260505171035 26 334 0.0 0.0 0.00 0.00 0.00 75 1004.6
20260505170544 26 336 0.0 0.0 0.00 0.00 0.00 75 1005.2
20260505170051 26 335 0.0 0.0 0.00 0.00 0.00 75 1004.8
20260505165602 26 336 0.0 0.0 0.00 0.00 0.00 75 1004.9
20260505165033 25 336 0.0 0.0 0.00 0.00 0.00 76 1004.8
20260505164541 25 334 0.0 0.0 0.00 0.00 0.00 76 1004.7
20260505164027 25 336 0.0 0.0 0.00 0.00 0.00 76 1005.3
20260505163537 25 336 0.0 0.0 0.00 0.00 0.00 75 1004.2
20260505163029 25 335 0.0 0.0 0.00 0.00 0.00 76 1004.7
20260505162542 25 335 0.0 0.0 0.00 0.00 0.00 75 1005.3
20260505162031 25 336 0.0 0.0 0.00 0.00 0.00 75 1005.1
20260505161541 25 336 0.0 0.0 0.00 0.00 0.00 75 1004.6
20260505161055 25 336 0.0 0.0 0.00 0.00 0.00 75 1004.7
20260505160541 25 335 0.0 0.0 0.00 0.00 0.00 75 1004.6
20260505153032 25 336 0.0 0.0 0.00 0.00 0.00 78 1004.4
20260505152559 25 336 0.0 0.0 0.00 0.00 0.00 78 1004.4
20260505152047 25 335 0.0 0.0 0.00 0.00 0.00 78 1004.7
20260505151536 25 335 0.0 0.0 0.00 0.00 0.00 78 1004.8
20260505151030 25 336 0.0 0.0 0.00 0.00 0.00 79 1004.7
20260505150544 24 336 0.0 0.0 0.00 0.00 0.00 79 1004.8
20260505140532 23 336 0.0 0.0 0.00 0.00 0.00 82 1004.5
20260505125041 22 335 0.0 0.0 0.00 0.00 0.00 85 1004.4
20260505124531 22 336 0.0 0.0 0.00 0.00 0.00 85 1004.3
20260505124105 22 336 0.0 0.0 0.00 0.00 0.00 85 1004.1
20260505123533 22 336 0.0 0.0 0.00 0.00 0.00 85 1004.1
20260505123026 22 336 0.0 0.0 0.00 0.00 0.00 86 1004.2
20260505122600 21 336 0.0 0.0 0.00 0.00 0.00 86 1004.2
20260505122032 21 334 0.0 0.0 0.00 0.00 0.00 86 1004.1
20260505121546 21 336 0.0 0.0 0.00 0.00 0.00 87 1004.1
20260505121044 21 336 0.0 0.0 0.00 0.00 0.00 87 1004.0
20260505120551 21 335 0.0 0.0 0.00 0.00 0.00 87 1004.0
20260505120043 21 334 0.0 0.0 0.00 0.00 0.00 86 1003.9
20260505115530 21 336 0.0 0.0 0.00 0.00 0.00 86 1003.9
20260505115037 21 336 0.0 0.0 0.00 0.00 0.00 86 1003.9
20260505114527 21 334 0.0 0.0 0.00 0.00 0.00 86 1003.8
20260505114038 21 336 0.0 0.0 0.00 0.00 0.00 86 1003.7
20260505113528 21 336 0.0 0.0 0.00 0.00 0.00 86 1003.8
20260505113059 21 335 0.0 0.0 0.00 0.00 0.00 86 1003.8
20260505112531 21 336 0.0 0.0 0.00 0.00 0.00 85 1003.8
20260505112030 21 336 0.0 0.0 0.00 0.00 0.00 85 1003.7
20260505111553 21 336 0.0 0.0 0.00 0.00 0.00 85 1003.7
20260505111043 21 336 0.0 0.0 0.00 0.00 0.00 85 1003.6
20260505110536 21 335 0.0 0.0 0.00 0.00 0.00 85 1003.6